Temperature
-2 -2 -2 -2 -2 -3 -3 -2 -2 -1 -2 -2 -2 -3 -3 -2 -2 -3 -2 -2 -2 -3 -3 -3 -3 -3 -3 -2 -2 -2 -2 -2 -2 -2 -2 -2 -1 -1 -1 -1 -1 -1 -1 -1
-3 -2 -3 -3 -3 -3 -3 -3 -3 -3 -3 -3 -3 -3 -3 -3 -3 -3 -3 -3 -3 -3 -3 -3 -3 -3 -3 -3 -3 -3 -3 -2 -2 -2 -2 -2 -2 -2 -2 -2 -2 -2 -2 -2
-2 -3 -3 -3 -3 -3 -4 -4 -4 -3 -3 -4 -4 -4 -4 -4 -3 -3 -3 -3 -4 -4 -4 -4 -4 -4 -4 -4 -3 -3 -3 -3 -3 -3 -3 -3 -3 -3 -3 -3 -3 -2 -2 -2
-3 -3 -2 -1 -4 -4 -4 -5 -5 -5 -5 -5 -5 -4 -4 -3 -3 -3 -3 -4 -4 -4 -4 -4 -4 -4 -4 -4 -4 -4 -4 -4 -4 -4 -4 -4 -3 -3 -3 -3 -3 -3 -3 -3
-4 -4 -3 -2 -4 -5 -5 -4 -5 -6 -5 -5 -5 -5 -4 -3 -3 -4 -4 -4 -4 -5 -5 -5 -5 -5 -5 -5 -5 -5 -5 -4 -4 -4 -4 -4 -4 -4 -4 -4 -4 -4 -4 -4
-5 -4 -2 -2 -4 -5 -5 -4 -5 -6 -6 -6 -6 -6 -5 -4 -4 -4 -5 -5 -5 -5 -5 -5 -5 -5 -5 -5 -5 -5 -5 -5 -5 -5 -5 -5 -5 -5 -5 -5 -5 -5 -5 -5
-6 -5 -4 -4 -6 -5 -3 -3 -4 -5 -5 -6 -7 -5 -5 -5 -5 -5 -5 -5 -5 -5 -5 -6 -6 -6 -6 -6 -6 -6 -6 -6 -6 -6 -6 -6 -6 -6 -6 -6 -6 -5 -5 -5
-6 -6 -4 -6 -7 -5 -4 -4 -4 -5 -5 -5 -5 -5 -5 -5 -5 -5 -6 -6 -6 -6 -6 -6 -6 -7 -6 -7 -6 -7 -6 -6 -6 -6 -6 -6 -6 -6 -6 -6 -6 -6 -6 -6
-6 -4 -5 -6 -5 -4 -4 -5 -5 -5 -5 -5 -6 -6 -6 -6 -6 -6 -6 -6 -6 -7 -7 -7 -7 -7 -7 -7 -7 -7 -7 -7 -7 -7 -7 -7 -7 -7 -7 -7 -7 -7 -7 -7
-7 -7 -6 -6 -5 -5 -5 -5 -5 -5 -6 -6 -6 -6 -6 -6 -6 -7 -7 -7 -7 -7 -7 -7 -7 -7 -8 -8 -8 -8 -8 -8 -8 -8 -8 -8 -8 -8 -8 -8 -7 -7 -8 -7
-8 -7 -7 -6 -5 -5 -5 -6 -6 -6 -6 -6 -6 -6 -7 -7 -7 -7 -7 -8 -8 -8 -8 -8 -8 -8 -8 -8 -8 -8 -8 -8 -8 -8 -8 -8 -8 -8 -8 -8 -8 -8 -8 -8
-6 -6 -7 -6 -5 -5 -6 -6 -6 -6 -6 -6 -7 -7 -7 -7 -8 -8 -8 -8 -8 -8 -8 -8 -8 -8 -8 -9 -9 -9 -9 -9 -9 -9 -9 -9 -9 -9 -9 -9 -9 -9 -9 -9
-6 -5 -6 -6 -6 -6 -7 -7 -7 -7 -7 -7 -7 -8 -8 -8 -8 -8 -8 -9 -9 -9 -9 -9 -9 -9 -9 -9 -9 -9 -9 -9 -9 -9 -9 -10 -10 -10 -9 -9 -9 -9 -9 -9
-6 -7 -7 -7 -7 -7 -7 -7 -7 -7 -7 -8 -8 -8 -8 -8 -9 -9 -9 -9 -9 -9 -9 -9 -9 -9 -9 -9 -9 -10 -10 -10 -10 -10 -10 -10 -10 -10 -10 -10 -10 -10 -10 -10
-7 -7 -8 -7 -8 -8 -8 -8 -8 -8 -8 -8 -8 -9 -9 -9 -9 -9 -9 -9 -10 -10 -10 -10 -10 -10 -10 -10 -10 -10 -10 -10 -11 -11 -11 -11 -11 -11 -11 -11 -11 -11 -10 -10
-8 -8 -8 -8 -8 -8 -8 -9 -9 -9 -9 -9 -9 -9 -9 -9 -9 -9 -10 -10 -10 -10 -10 -10 -10 -10 -10 -10 -10 -10 -11 -11 -11 -11 -11 -11 -11 -11 -11 -11 -11 -11 -11 -11
-8 -9 -9 -9 -9 -9 -9 -9 -9 -9 -9 -9 -9 -9 -10 -10 -10 -10 -10 -10 -11 -11 -11 -11 -11 -11 -11 -11 -11 -11 -11 -11 -11 -11 -11 -11 -11 -12 -12 -12 -12 -11 -11 -11
-8 -8 -8 -9 -9 -9 -9 -9 -9 -9 -9 -9 -10 -10 -10 -10 -10 -10 -11 -11 -11 -11 -11 -11 -11 -11 -11 -11 -11 -11 -11 -11 -11 -11 -11 -12 -12 -12 -12 -12 -12 -12 -12 -11
-9 -9 -9 -9 -9 -9 -9 -9 -10 -10 -10 -10 -10 -10 -10 -10 -11 -11 -11 -11 -11 -11 -11 -11 -11 -11 -11 -11 -11 -11 -11 -12 -12 -12 -12 -12 -12 -12 -12 -12 -12 -12 -12 -12
-9 -9 -9 -9 -9 -10 -10 -10 -10 -10 -10 -10 -10 -11 -11 -11 -11 -11 -11 -12 -12 -12 -12 -12 -12 -12 -12 -12 -12 -12 -12 -12 -12 -12 -12 -12 -13 -13 -13 -13 -13 -12 -12 -12
-9 -9 -9 -9 -10 -10 -10 -10 -10 -10 -11 -11 -11 -11 -11 -11 -12 -12 -12 -12 -12 -12 -12 -12 -12 -12 -12 -12 -12 -12 -12 -12 -12 -12 -13 -13 -13 -13 -13 -13 -13 -13 -13 -13
-9 -10 -10 -10 -10 -10 -10 -10 -10 -11 -11 -11 -11 -11 -11 -12 -12 -12 -12 -12 -12 -13 -13 -13 -12 -12 -13 -12 -12 -12 -12 -13 -13 -13 -13 -13 -13 -13 -13 -13 -13 -13 -13 -13
-10 -10 -10 -10 -10 -10 -11 -11 -11 -11 -11 -11 -11 -12 -12 -12 -12 -12 -12 -12 -13 -13 -13 -13 -13 -13 -13 -13 -13 -13 -13 -13 -13 -13 -13 -13 -13 -13 -13 -14 -14 -14 -14 -14
-10 -10 -11 -11 -11 -11 -11 -11 -11 -11 -12 -12 -12 -12 -12 -12 -12 -12 -13 -13 -13 -13 -13 -13 -13 -13 -13 -13 -13 -13 -13 -13 -13 -13 -13 -13 -13 -14 -14 -14 -14 -14 -14 -14
-11 -11 -11 -11 -11 -11 -12 -12 -12 -12 -12 -12 -12 -12 -12 -12 -13 -13 -13 -13 -13 -13 -13 -13 -13 -13 -13 -13 -13 -13 -13 -13 -13 -13 -13 -14 -14 -14 -14 -14 -14 -14 -14 -14
-11 -12 -12 -12 -12 -12 -12 -12 -12 -12 -12 -12 -12 -13 -13 -13 -13 -13 -13 -13 -13 -13 -13 -13 -14 -13 -13 -13 -13 -13 -13 -13 -13 -14 -14 -14 -14 -14 -14 -14 -14 -14 -14 -14
-12 -12 -12 -12 -12 -12 -12 -12 -13 -13 -13 -13 -13 -13 -13 -13 -13 -13 -14 -14 -14 -14 -14 -14 -14 -14 -14 -14 -14 -14 -14 -14 -14 -14 -14 -14 -14 -14 -14 -14 -14 -14 -14 -14
Wind_Speed
9 8 6 8 8 7 9 9 10 11 11 14 10 8 7 7 7 6 6 6 6 6 5 5 5 5 5 5 4 3 3 3 4 4 4 3 3 3 3 4 4 4 5 5
6 6 6 9 11 10 11 9 11 13 15 11 9 7 7 7 6 7 7 7 6 6 5 5 6 6 6 5 5 3 3 4 4 4 3 3 3 3 3 3 4 4 5 5
6 5 5 8 8 8 6 7 7 11 11 7 7 8 8 7 6 7 7 7 6 6 6 6 6 6 5 5 4 3 3 4 4 3 3 3 3 3 3 3 3 4 4 5
3 4 7 7 1 5 7 8 8 8 8 7 8 9 7 5 5 7 7 6 7 6 6 6 5 5 5 4 3 3 4 4 3 3 3 3 3 3 3 3 3 3 4 4
2 4 9 7 2 3 5 8 6 8 9 7 6 6 6 4 4 5 6 6 6 5 5 5 5 4 4 4 3 3 4 4 4 3 3 3 3 3 3 3 3 3 4 4
2 3 8 6 1 2 1 7 3 4 6 5 3 4 6 5 5 5 5 5 5 5 4 4 5 3 3 3 3 4 4 4 4 3 3 3 4 3 2 2 3 3 4 4
5 6 9 5 1 2 2 6 3 3 4 3 4 6 6 5 5 5 5 5 4 4 4 4 4 3 3 3 4 5 5 4 4 3 4 3 3 2 2 2 2 3 4 4
4 5 9 3 4 5 6 3 3 4 4 4 6 6 6 5 5 5 6 5 4 4 5 4 3 3 3 5 5 5 4 4 4 4 3 3 2 2 2 2 3 3 3 4
9 8 4 4 5 4 2 4 4 4 4 4 5 6 6 5 5 5 5 5 4 3 5 5 4 3 4 5 5 4 4 4 4 4 3 3 2 2 2 2 3 3 3 4
6 9 7 6 6 5 3 4 5 4 4 3 5 6 6 5 5 5 5 5 4 4 4 5 4 4 4 5 4 3 4 4 3 3 3 2 2 2 2 3 3 3 4 4
8 8 6 7 7 7 6 5 5 5 4 4 5 6 5 5 5 5 5 5 4 4 5 6 5 5 5 4 3 3 3 3 3 3 3 2 2 2 3 3 4 4 4 4
9 7 6 7 5 5 5 6 6 5 5 4 4 5 5 5 5 5 5 4 4 4 5 5 5 5 5 4 3 2 3 3 2 2 2 2 2 3 4 4 5 6 6 5
8 5 5 7 6 4 4 5 5 4 5 5 5 4 4 5 4 4 5 5 5 5 5 5 5 5 5 4 3 2 2 3 2 2 2 2 2 2 3 4 5 5 5 6
6 4 5 6 6 5 4 4 4 3 3 4 4 4 4 4 4 5 5 5 5 4 4 4 4 5 5 4 3 2 2 3 2 2 2 2 2 2 2 3 3 4 5 6
6 5 6 5 4 4 3 3 3 4 4 4 3 4 4 4 5 6 5 5 4 4 4 4 4 6 5 4 3 2 2 2 2 2 2 2 2 2 2 2 3 3 3 5
4 4 4 4 5 5 4 4 4 5 5 4 4 5 5 5 5 5 4 3 3 4 5 4 5 5 4 3 3 2 2 3 3 1 1 2 2 2 2 2 2 3 3 4
3 5 5 6 7 7 6 6 6 6 5 5 5 5 4 4 4 4 4 4 4 5 5 4 5 5 4 3 2 2 2 2 3 2 1 2 1 2 2 2 2 2 3 4
5 6 6 6 6 7 6 6 5 5 5 5 4 3 3 3 4 5 5 4 4 4 4 4 4 3 3 3 2 2 2 1 1 1 2 2 1 1 2 2 2 2 3 3
4 4 4 4 5 5 5 5 5 4 4 3 3 4 4 4 4 4 3 3 3 5 5 5 5 3 3 3 3 1 1 1 2 1 1 2 2 2 2 2 2 2 2 2
2 3 3 3 3 3 3 3 3 3 3 2 2 3 3 4 3 3 3 3 4 4 5 4 3 3 3 3 3 1 1 1 1 1 1 1 1 2 2 2 2 2 2 2
2 2 2 3 3 3 3 2 2 3 3 2 3 4 4 4 3 2 2 4 4 3 3 4 3 3 2 2 2 1 1 1 1 1 1 1 1 2 2 2 2 2 2 2
2 2 3 3 3 3 3 2 2 2 2 2 3 3 3 3 3 3 3 4 4 5 3 2 3 4 4 3 1 0 0 1 1 1 1 1 1 2 2 2 2 2 2 2
2 2 2 3 3 3 3 2 2 2 3 3 3 3 3 3 3 3 4 3 3 5 3 2 4 6 5 2 1 0 1 1 1 1 1 2 2 2 2 2 2 2 2 2
2 2 2 2 1 2 3 4 3 2 3 3 3 3 3 3 3 3 3 4 5 5 3 4 6 6 5 2 1 1 1 1 1 1 2 2 2 2 2 2 2 2 2 3
2 2 1 1 2 3 3 3 2 2 2 2 3 2 2 2 3 3 2 3 4 4 3 4 6 6 3 1 1 1 2 2 2 1 2 2 2 2 2 2 2 2 3 3
2 2 2 3 3 2 2 2 2 2 2 2 3 2 2 1 2 2 2 2 3 4 3 3 3 3 2 2 2 2 2 2 3 2 2 2 2 2 2 3 3 3 3 4
1 2 2 2 2 2 2 2 2 2 2 2 3 3 2 1 1 1 2 2 2 2 2 2 2 2 2 2 2 2 2 2 2 2 2 2 2 3 3 3 4 4 4 4
Wind_Direction
257 269 260 253 252 236 226 226 234 253 255 273 283 285 292 295 302 307 308 310 310 308 308 309 309 304 300 300 302 294 279 270 266 265 258 247 238 231 219 215 223 218 218 221
277 274 265 269 264 245 243 243 247 264 273 276 284 289 295 295 298 300 301 304 305 307 307 305 303 303 304 306 308 305 283 276 279 274 263 250 244 234 225 222 224 220 221 224
277 302 320 281 254 220 226 224 216 242 258 285 294 290 285 283 287 285 293 299 301 303 298 296 297 300 298 300 310 305 288 285 282 273 263 256 249 233 230 228 229 229 226 227
287 341 260 252 201 200 227 247 234 247 265 273 277 291 284 269 273 286 294 298 299 302 304 303 303 308 307 312 310 301 294 289 285 276 269 265 251 245 242 241 238 239 242 238
226 265 276 288 258 192 223 268 233 239 264 283 305 316 293 279 272 274 282 290 293 296 300 308 312 317 322 320 315 308 300 294 288 273 268 265 258 254 245 240 246 247 249 243
188 241 259 267 263 236 179 278 262 224 256 279 332 308 290 314 311 300 301 302 303 308 316 317 319 330 329 318 317 304 298 294 292 285 269 262 260 261 257 246 246 251 260 254
216 240 264 264 244 116 192 268 306 244 256 249 240 250 285 316 319 312 309 310 315 317 319 317 326 338 327 319 306 302 306 304 301 292 278 269 264 260 255 254 250 250 260 264
187 221 256 214 139 188 235 293 291 280 267 252 261 281 295 303 308 315 317 320 325 325 321 325 334 335 319 308 308 314 313 309 303 296 286 273 256 260 253 238 240 250 257 266
203 224 263 188 212 244 271 276 280 284 283 270 276 284 292 298 300 304 306 310 316 313 315 321 327 322 305 308 318 320 317 310 308 307 298 284 255 252 257 240 235 245 249 258
250 261 259 257 267 277 267 269 281 278 277 267 273 281 285 291 298 302 303 304 310 311 309 311 316 315 301 308 316 320 316 315 318 318 308 292 269 252 244 238 239 245 247 258
254 270 291 269 252 258 271 279 286 288 278 266 271 281 281 287 292 295 298 304 305 297 296 300 310 311 311 316 318 318 316 317 321 321 318 313 297 265 264 249 242 246 246 247
247 246 236 266 274 267 269 276 276 281 294 298 276 276 283 285 288 291 294 300 303 300 299 301 306 307 310 310 306 307 315 320 318 317 319 317 313 318 312 306 298 288 285 277
247 261 253 271 285 280 269 276 276 269 271 288 292 278 280 287 294 297 296 296 292 292 294 300 304 307 308 308 302 288 290 302 306 314 319 316 312 308 313 322 324 317 307 298
244 252 268 270 276 283 279 282 282 284 279 279 285 292 289 290 297 298 293 289 291 292 296 299 304 305 307 308 299 289 292 298 305 297 298 299 299 300 303 310 317 320 320 316
248 242 249 271 286 292 294 297 297 293 297 301 296 293 291 289 290 291 294 302 306 305 302 304 305 305 311 309 301 285 288 287 285 286 287 290 295 300 302 303 306 312 320 318
260 267 257 262 270 276 281 277 273 279 286 288 290 286 281 278 284 293 299 303 299 296 298 299 298 303 309 308 305 296 283 297 307 299 299 304 306 308 309 311 312 315 314 314
238 261 264 271 271 273 268 261 260 268 274 273 276 284 292 297 302 304 305 301 286 283 288 290 294 304 305 301 293 294 297 300 316 317 300 291 296 302 305 310 314 316 315 323
238 246 250 255 261 266 270 266 263 265 264 267 277 283 284 284 285 292 302 311 314 308 303 295 297 305 306 304 299 294 300 306 306 300 304 306 309 308 313 312 312 312 319 331
257 260 263 263 261 258 260 261 264 265 270 271 268 269 271 274 278 287 300 309 308 305 312 312 322 328 312 305 317 298 297 300 305 305 311 317 330 327 320 316 316 317 324 333
286 285 283 287 286 269 264 267 266 270 273 265 268 280 288 290 288 289 291 284 277 281 294 312 316 305 300 296 312 296 286 285 293 304 312 308 309 314 316 317 318 322 324 325
286 296 298 295 297 293 276 262 254 266 274 257 249 262 273 285 287 282 285 293 299 298 302 318 322 304 299 299 303 308 298 293 291 286 287 291 299 308 310 311 313 313 312 316
280 285 288 291 296 301 300 284 261 263 272 271 267 267 277 289 295 291 272 266 285 311 327 306 303 309 318 322 315 317 295 287 290 290 285 284 288 293 297 302 303 306 306 306
265 269 280 282 280 291 308 301 281 267 267 267 265 265 267 272 272 277 293 293 289 307 324 303 311 322 331 359 9 347 307 299 299 296 290 285 281 279 283 291 294 297 298 299
271 277 281 292 301 305 304 302 296 284 276 274 268 260 259 276 290 273 268 296 311 317 320 312 325 332 346 18 358 326 303 294 288 287 286 284 278 274 277 282 287 291 291 292
268 272 272 270 274 277 281 295 307 302 302 304 302 291 276 258 263 288 295 295 309 327 328 323 331 340 355 340 320 307 300 285 272 273 270 274 275 276 280 281 279 283 285 286
257 262 261 255 257 268 275 275 284 294 302 311 316 311 306 300 282 291 306 312 312 327 336 327 323 328 326 315 305 297 293 300 310 306 284 278 277 278 279 281 283 280 280 280
280 277 277 286 281 267 265 259 264 275 276 279 296 302 305 318 320 315 316 320 322 328 326 323 320 316 312 310 309 303 298 293 289 286 284 280 278 276 278 278 279 281 281 281
Height
1507 1504 1505 1503 1503 1504 1503 1499 1498 1486 1485 1476 1474 1474 1472 1470 1468 1467 1465 1463 1462 1460 1458 1456 1455 1454 1452 1451 1450 1449 1448 1448 1449 1449 1450 1450 1451 1452 1453 1455 1456 1458 1459 1460
1506 1503 1503 1501 1498 1498 1498 1496 1494 1488 1482 1473 1473 1471 1470 1468 1466 1464 1462 1461 1459 1457 1455 1454 1452 1451 1449 1447 1446 1445 1444 1444 1445 1445 1446 1446 1447 1448 1449 1450 1451 1453 1454 1455
1504 1504 1501 1496 1489 1490 1491 1489 1488 1484 1476 1471 1471 1469 1467 1466 1464 1462 1460 1459 1457 1455 1453 1451 1449 1447 1445 1444 1442 1441 1441 1441 1441 1441 1441 1442 1443 1443 1444 1445 1446 1447 1448 1450
1508 1505 1498 1483 1484 1484 1484 1482 1480 1477 1473 1471 1469 1466 1464 1463 1461 1459 1458 1456 1454 1452 1450 1448 1446 1445 1443 1441 1440 1438 1438 1437 1437 1437 1437 1438 1438 1438 1439 1440 1441 1442 1443 1444
1510 1506 1496 1483 1482 1483 1483 1477 1473 1472 1469 1468 1467 1464 1460 1459 1458 1457 1456 1454 1452 1449 1447 1445 1443 1441 1439 1438 1437 1435 1434 1434 1434 1433 1433 1433 1433 1434 1435 1435 1436 1437 1438 1438
1512 1505 1494 1479 1480 1478 1480 1475 1468 1468 1467 1466 1466 1466 1459 1457 1456 1454 1453 1451 1449 1446 1444 1442 1440 1438 1436 1435 1433 1432 1431 1431 1430 1430 1429 1429 1429 1429 1430 1431 1431 1432 1432 1433
1510 1505 1491 1480 1478 1479 1482 1471 1466 1465 1464 1464 1464 1462 1458 1455 1453 1452 1450 1448 1446 1444 1441 1439 1437 1435 1433 1432 1430 1429 1428 1427 1426 1426 1425 1425 1425 1425 1426 1426 1427 1427 1427 1428
1506 1504 1488 1476 1477 1478 1471 1466 1464 1463 1462 1461 1459 1457 1455 1453 1451 1449 1447 1445 1443 1440 1438 1436 1435 1433 1431 1429 1428 1426 1424 1423 1422 1421 1421 1421 1421 1421 1421 1422 1422 1422 1423 1423
1489 1481 1472 1471 1469 1467 1466 1465 1462 1461 1460 1459 1456 1454 1452 1450 1448 1446 1444 1442 1440 1438 1435 1433 1432 1430 1428 1426 1424 1422 1421 1420 1418 1417 1417 1417 1417 1417 1417 1418 1418 1418 1418 1418
1482 1472 1469 1467 1465 1464 1463 1462 1460 1459 1457 1456 1453 1451 1449 1447 1445 1443 1441 1439 1437 1435 1432 1430 1429 1427 1425 1423 1421 1420 1418 1416 1415 1414 1412 1412 1413 1413 1413 1413 1414 1414 1414 1414
1475 1467 1465 1461 1460 1459 1458 1457 1456 1455 1453 1452 1450 1448 1446 1444 1442 1439 1438 1436 1434 1432 1429 1427 1426 1424 1422 1421 1419 1417 1415 1414 1412 1411 1410 1409 1410 1410 1410 1410 1410 1410 1410 1410
1466 1461 1462 1457 1456 1455 1454 1452 1451 1450 1448 1447 1446 1444 1442 1440 1438 1436 1434 1432 1430 1429 1427 1425 1423 1421 1420 1418 1416 1414 1412 1411 1410 1409 1408 1408 1407 1407 1407 1407 1407 1407 1407 1407
1458 1456 1456 1453 1452 1451 1450 1448 1447 1446 1444 1443 1441 1440 1438 1436 1434 1433 1431 1429 1427 1426 1424 1422 1420 1418 1417 1415 1414 1412 1410 1409 1408 1407 1406 1405 1405 1404 1403 1404 1404 1404 1403 1403
1454 1453 1451 1449 1448 1447 1445 1444 1443 1442 1440 1439 1438 1436 1435 1433 1431 1429 1427 1425 1424 1422 1421 1419 1417 1416 1414 1413 1411 1410 1408 1407 1406 1405 1404 1403 1403 1402 1401 1400 1400 1399 1400 1400
1448 1448 1447 1445 1444 1442 1441 1440 1439 1437 1436 1435 1434 1433 1431 1429 1427 1426 1424 1422 1420 1419 1417 1416 1414 1413 1412 1410 1408 1407 1406 1405 1404 1403 1402 1402 1401 1400 1399 1398 1397 1397 1397 1397
1443 1443 1442 1441 1439 1438 1437 1436 1435 1433 1432 1431 1430 1429 1427 1426 1424 1423 1421 1419 1417 1416 1414 1413 1412 1411 1409 1408 1406 1405 1404 1403 1402 1401 1400 1399 1398 1398 1397 1396 1395 1395 1395 1395
1440 1438 1437 1436 1435 1433 1433 1432 1431 1430 1429 1428 1427 1426 1424 1422 1421 1419 1418 1416 1415 1413 1412 1411 1409 1408 1407 1405 1404 1403 1402 1401 1400 1399 1398 1397 1396 1395 1395 1394 1393 1393 1393 1393
1436 1435 1434 1433 1431 1430 1428 1428 1427 1427 1426 1424 1423 1422 1420 1419 1417 1416 1415 1413 1412 1411 1409 1408 1407 1405 1404 1403 1402 1401 1400 1399 1398 1397 1396 1395 1394 1394 1393 1392 1391 1391 1390 1390
1431 1431 1430 1429 1427 1426 1425 1424 1424 1423 1422 1421 1420 1419 1417 1416 1415 1414 1412 1411 1409 1407 1406 1405 1404 1403 1402 1401 1400 1399 1398 1397 1396 1395 1394 1393 1393 1392 1391 1390 1390 1389 1389 1389
1428 1427 1426 1425 1424 1423 1422 1421 1420 1420 1419 1418 1417 1416 1415 1414 1412 1411 1410 1409 1407 1406 1405 1403 1402 1401 1400 1399 1398 1397 1396 1395 1394 1393 1392 1392 1391 1390 1389 1388 1388 1388 1387 1387
1425 1424 1424 1423 1422 1421 1420 1419 1418 1417 1416 1416 1415 1413 1412 1411 1410 1408 1407 1406 1405 1404 1403 1401 1400 1399 1398 1397 1396 1395 1394 1393 1392 1391 1390 1390 1389 1388 1387 1387 1386 1386 1386 1385
1423 1422 1422 1421 1420 1419 1417 1416 1415 1415 1414 1413 1412 1411 1409 1408 1407 1406 1405 1404 1403 1402 1401 1399 1398 1397 1396 1395 1394 1393 1392 1391 1390 1389 1388 1388 1387 1386 1386 1385 1385 1384 1384 1383
1422 1421 1420 1419 1418 1416 1415 1414 1413 1412 1411 1410 1409 1408 1407 1406 1405 1404 1403 1402 1401 1400 1399 1398 1397 1396 1395 1393 1392 1391 1390 1389 1388 1388 1387 1386 1386 1385 1384 1384 1383 1383 1382 1382
1419 1418 1417 1416 1415 1414 1412 1411 1410 1410 1409 1408 1407 1406 1405 1404 1403 1402 1401 1400 1399 1398 1397 1396 1395 1394 1392 1391 1390 1389 1389 1388 1387 1386 1385 1385 1384 1384 1383 1382 1382 1381 1380 1380
1417 1416 1415 1414 1413 1411 1410 1409 1408 1407 1406 1405 1405 1404 1403 1402 1401 1400 1399 1398 1397 1396 1395 1394 1393 1392 1390 1389 1388 1387 1387 1386 1385 1384 1384 1383 1382 1382 1381 1380 1380 1379 1378 1378
1414 1413 1412 1411 1410 1409 1408 1407 1406 1405 1404 1403 1402 1402 1401 1400 1399 1398 1397 1396 1395 1394 1393 1392 1391 1390 1389 1387 1386 1386 1385 1384 1383 1382 1382 1381 1380 1380 1379 1378 1378 1377 1376 1376
1412 1411 1410 1409 1408 1407 1406 1405 1404 1403 1402 1401 1400 1400 1399 1398 1397 1396 1395 1394 1393 1392 1391 1390 1389 1388 1387 1386 1385 1384 1383 1382 1381 1381 1380 1379 1378 1378 1377 1376 1376 1375 1375 1374